Location: Muinami
(1.4667°N, 32.5167°E)
Time: 06:04:19
(UTC+00:00)

Daily predictions for brighter satellites

Satellite Brightness Start Highest point End
(mag) Time Altitude Azimuth Time Altitude Azimuth Time Altitude Azimuth
Cosmos 2181 Rocket 4.4 16:14:03 10° N 16:20:08 72° W 16:26:20 10° S
Cosmos 1346 Rocket 3.0 16:16:30 10° S 16:20:18 47° E 16:24:05 10° NNE
Cosmos 1408 Rocket 4.4 16:20:24 10° SSE 16:24:20 31° E 16:28:15 10° NNE
Okean 3 Rocket 3.5 16:20:21 10° S 16:24:44 81° E 16:29:05 10° N
Cosmos 2341 Rocket 4.2 16:19:00 10° SSE 16:24:59 50° E 16:30:56 10° NNE
USA 267 4.1 16:21:55 10° NNE 16:28:16 56° NW 16:34:38 10° SW
Okean-O 2.8 16:25:31 10° SSE 16:29:50 54° ENE 16:34:09 10° N
GPS 2-15 Rocket1 3.7 16:28:15 10° SW 16:32:34 38° SSE 16:36:38 11° E
CZ-2C R/B 4.4 16:29:11 10° ESE 16:32:35 18° ENE 16:35:53 10° NE
Cosmos 332 Rocket 4.1 16:32:43 10° NNW 16:37:34 74° WSW 16:42:27 10° S
Longmarch 3A Rocket 1.2 16:40:50 10° WSW 16:43:16 46° NNW 16:44:49 11° NE
Spelda 4.4 16:25:33 10° W 16:48:37 55° SSW 16:52:19 18° ESE
CZ-4 R/B 1.2 16:45:50 10° SSE 16:49:41 81° ENE 16:53:31 10° N
Meteor 2-3 Rocket 3.8 16:46:17 10° S 16:52:02 87° W 16:57:48 10° N
MOS 1 Rocket 3.4 16:47:54 10° NNE 16:53:10 76° E 16:58:10 10° S
Abrixas rocket 4.0 16:51:42 10° NNE 16:53:17 14° NE 16:53:17 14° NE
Cosmos 1452 Rocket 4.1 16:49:27 10° NNW 16:54:35 59° WSW 16:59:46 10° S
Cosmos 2218 Rocket 4.0 16:49:36 10° S 16:55:44 56° E 17:01:46 10° NNE
Cosmos 2369 Rocket 2.5 16:55:48 10° NNW 17:01:25 70° WSW 17:07:06 10° S
Cosmos 2263 4.1 16:57:44 10° NNW 17:03:29 80° ENE 17:09:13 10° SSE
H-2A R/B 2.7 17:01:42 21° SE 17:04:39 36° ENE 17:09:24 10° NNE
Ariane H10 2.8 17:04:11 10° SW 17:04:14 10° SW 17:04:14 10° SW
Cosmos 1331 Rocket 4.1 17:02:40 10° N 17:07:39 49° ENE 17:10:26 25° SE
CSL-04 Debris 4.1 17:03:23 10° SSE 17:08:51 69° ENE 17:14:17 10° N
Nadezhda 3 Rocket 3.9 17:05:03 10° N 17:11:12 89° W 17:17:22 10° S
CZ-2C R/B 2.5 17:09:28 10° NNE 17:14:41 69° ESE 17:20:00 10° S
ATLAS 5 CENTAUR R/B 0.9 17:12:56 10° SW 17:15:30 58° SSE 17:17:02 37° E
Cosmos 864 Rocket 4.4 17:09:22 10° S 17:15:41 82° E 17:22:00 10° N
Ariane H10+ 3.4 17:15:44 10° WNW 17:16:33 18° WNW 17:16:33 18° WNW
Cosmos 1328 Rocket 3.9 17:16:52 10° NNE 17:20:45 42° ENE 17:20:45 42° ENE
Cosmos 1833 Rocket 2.5 17:16:23 10° SSW 17:21:59 81° ESE 17:27:34 10° NNE
Cosmos 1656 Rocket 3.5 17:16:40 10° NNW 17:22:14 82° ENE 17:25:38 25° SSE
CZ-4C R/B 4.5 17:22:41 10° NW 17:30:19 37° WSW 17:37:50 10° S
Cosmos 1867 3.4 17:25:08 10° SSW 17:30:30 72° ESE 17:35:53 10° NNE
Cosmos 1933 3.5 17:27:09 10° N 17:30:36 57° NE 17:30:36 57° NE
DMSP B5D2-2 4.3 17:32:01 10° N 17:37:13 68° WNW 17:42:27 10° SSW
NOSS 3-2 (A) 2.9 17:37:23 10° SSW 17:42:47 74° ESE 17:43:07 71° E
BLOCK DM-SL R/B 3.6 17:39:15 10° W 17:44:23 84° S 18:41:00 10° E
BLOCK DM-SL R/B 3.6 17:39:15 10° W 17:44:23 84° S 18:40:59 10° E
BLOCK DM-SL R/B 3.6 17:39:15 10° W 17:44:24 84° S 18:40:59 10° E
Cosmos 1606 4.0 17:42:02 10° NNW 17:45:34 38° W 17:46:14 35° WSW
Ariane H10-3 4.4 17:50:32 10° WNW 17:50:37 11° WNW 17:50:37 11° WNW
Cosmos 1821 Rocket 4.5 17:56:09 44° NNE 17:56:09 44° NNE 18:00:18 10° NNE
Cosmos 1151 Rocket 4.3 17:58:08 10° NNW 18:01:47 38° W 18:01:47 38° W
ARIANE 44L R/B 4.2 17:55:50 10° W 18:04:40 34° SW 18:04:40 34° SW
Cosmos 2082 Rocket 2.8 18:09:16 10° SSW 18:14:49 54° WNW 18:20:21 10° N
H-2A ROCKET BODY 4.2 19:04:40 10° WNW 19:57:52 12° SE 20:03:55 10° SE
